RH
28 28 29 29 28 27 26 25 24 24 24 24 25 26 28 28 28 27 27 30 32 32 31 31 31 31 34 43 46 44 40 40 41 41 40 39 39 40 41 41 40 39 38 36 35 34 33 31 28 25 26 28 30 31 32 32 31 30 29 28 27 26 25 26 26 27 28 29 32 34 35 35 33 30 27 25 24 24 24 24 25 25 25 26 26 26 26 26 26 26 26 25 25 24 21 16 13 14 17 18 18 18 18
29 28 29 29 28 27 26 24 23 23 24 24 24 26 29 30 29 29 30 32 31 30 29 31 33 34 34 42 46 46 41 40 39 38 38 36 36 35 36 36 36 35 34 33 32 31 30 28 25 24 27 29 30 30 31 30 30 30 29 28 27 27 26 26 27 27 28 31 35 37 37 35 32 29 26 25 24 24 24 24 24 24 24 24 24 24 24 24 25 26 26 26 26 24 22 17 13 13 16 18 18 18 17
29 29 29 29 28 27 25 25 25 25 25 25 25 27 31 34 33 32 34 35 32 30 30 32 34 36 38 43 46 47 44 42 40 38 37 35 34 33 33 33 33 32 32 31 31 30 30 26 24 24 28 29 29 29 29 30 30 29 29 29 28 27 27 27 27 27 26 30 35 38 37 34 31 29 26 25 24 24 24 23 22 22 22 22 22 22 22 23 24 26 27 27 27 25 22 17 14 13 15 17 18 18 17
31 31 30 29 28 26 26 27 28 29 29 28 28 29 32 36 36 35 37 37 34 31 32 35 36 36 36 42 46 46 44 42 40 39 37 35 33 32 31 32 32 32 32 31 31 31 31 27 25 25 28 29 29 29 29 29 29 28 28 28 29 28 28 28 29 29 26 29 33 35 33 31 28 27 25 25 24 24 24 22 22 21 21 21 22 22 22 23 24 26 28 28 28 26 24 18 15 14 15 17 18 18 18
32 32 30 30 29 27 28 31 33 33 32 31 30 32 35 38 38 37 37 36 35 33 32 36 38 37 33 38 42 43 41 39 38 38 36 34 33 31 31 32 32 32 32 32 32 31 31 27 26 28 29 29 29 29 29 28 28 28 27 28 29 29 28 28 29 29 26 27 29 30 29 27 26 25 24 24 24 24 23 22 22 22 22 22 22 22 23 23 24 26 29 29 28 27 24 20 16 14 15 16 17 18 18
33 32 31 30 30 30 32 35 37 36 35 34 34 35 39 40 41 39 36 35 35 34 32 35 38 40 36 36 37 38 37 35 35 35 35 33 32 31 32 33 33 33 32 32 32 32 30 27 28 29 30 29 29 29 29 28 28 27 27 28 29 29 29 28 27 27 25 26 26 26 25 24 24 24 23 24 24 23 22 22 23 23 23 22 22 23 24 24 26 27 28 28 28 27 25 20 17 15 17 16 17 18 19
33 33 31 30 31 33 37 39 39 38 37 36 37 39 43 44 44 42 37 36 36 36 34 34 36 39 39 37 36 35 34 33 33 33 32 32 32 33 34 34 33 32 32 32 32 31 28 28 29 30 30 29 29 29 28 28 27 27 26 28 28 29 28 26 26 26 27 28 27 26 25 26 25 24 24 24 24 24 23 23 24 24 24 23 23 23 24 26 27 27 28 28 27 25 23 19 16 14 14 16 17 18 19
33 33 33 33 33 34 39 40 40 39 39 38 40 43 44 43 44 44 40 38 38 38 36 34 33 33 34 34 34 33 33 32 32 32 32 32 33 34 34 33 32 32 32 33 32 30 26 27 29 29 30 29 29 29 28 28 28 28 27 27 27 27 26 25 25 29 36 33 30 28 28 32 30 27 26 26 25 25 25 26 26 26 25 24 24 24 25 26 27 27 27 26 25 23 20 18 15 14 14 15 16 18 19
34 34 35 38 38 37 39 39 40 41 43 42 44 46 46 43 43 45 43 43 42 42 41 37 34 31 30 31 32 33 34 34 34 34 33 34 33 32 31 31 31 32 33 34 32 28 25 26 28 29 30 29 29 29 29 29 29 29 27 26 25 25 24 24 25 29 41 37 33 30 28 30 29 28 28 28 27 26 28 29 30 29 28 26 25 24 25 26 26 26 26 24 23 21 19 17 15 14 14 15 16 18 20
33 33 34 40 42 41 41 40 41 44 48 49 50 50 48 44 44 46 46 45 44 43 42 40 37 34 32 33 34 36 37 37 36 35 34 33 32 30 30 31 32 33 35 34 30 26 24 26 27 29 29 29 29 30 30 31 30 29 28 25 23 22 23 24 24 28 38 37 35 31 29 29 29 29 29 30 29 29 30 31 31 31 31 28 26 25 25 25 25 25 24 23 22 21 20 17 16 15 15 16 17 19 21
34 33 32 38 42 45 46 45 45 47 51 54 55 54 51 47 46 47 46 45 43 41 39 39 39 39 38 36 36 37 38 39 37 36 34 32 30 30 31 32 33 34 34 32 29 25 23 25 27 28 29 30 30 31 31 32 31 30 28 25 23 23 22 23 24 26 29 31 32 31 30 30 30 30 30 31 30 30 31 32 32 31 30 28 27 26 25 24 24 25 23 24 23 22 21 18 16 16 16 17 18 19 21
33 32 32 36 40 45 50 50 49 49 52 56 58 56 52 49 48 47 46 43 40 37 35 35 38 41 41 39 38 37 37 37 36 35 33 31 31 32 32 32 33 33 33 31 27 24 22 25 27 28 29 30 31 32 32 32 31 30 28 26 25 24 24 23 23 24 25 26 27 29 30 30 30 31 31 31 30 30 31 31 32 32 31 29 28 27 26 24 23 24 23 27 27 24 21 18 17 17 17 18 19 19 20
32 32 32 35 38 43 50 53 52 51 52 57 58 57 53 50 49 48 46 42 39 36 33 33 37 40 42 40 38 36 35 36 35 34 33 31 31 32 31 30 30 30 30 28 26 23 22 25 27 29 30 31 32 32 32 31 31 30 28 27 27 26 26 25 24 24 24 24 26 27 28 29 29 30 30 30 29 29 29 30 30 30 30 30 29 28 25 23 23 23 24 29 29 26 21 19 18 18 19 19 19 19 19
32 32 33 35 37 40 48 54 55 55 56 58 57 55 53 52 51 49 46 42 38 35 32 33 36 40 42 41 37 34 33 34 34 33 32 32 32 31 30 27 25 26 27 26 24 23 22 25 27 30 32 32 33 32 30 30 30 29 29 28 28 28 27 26 26 25 24 24 25 25 26 26 27 27 28 28 28 27 27 26 26 27 28 29 28 26 24 22 22 21 22 27 28 26 22 20 19 19 19 20 20 20 20
32 32 34 35 37 40 46 54 59 60 61 60 58 55 54 54 53 50 47 43 39 34 32 33 35 38 41 40 37 34 33 34 34 33 32 32 31 30 27 23 22 23 25 25 23 22 22 25 28 31 33 33 32 30 29 28 28 29 29 29 29 28 28 27 27 27 25 25 25 26 26 25 25 25 25 25 25 25 24 23 23 23 25 27 26 24 22 22 21 20 21 23 25 25 23 21 20 20 20 20 20 20 19
34 33 33 35 36 40 45 53 59 64 65 63 60 59 59 59 56 52 49 45 39 34 32 33 34 35 37 38 37 35 33 33 33 33 33 32 30 28 25 21 21 23 25 24 22 21 23 27 30 32 33 31 30 29 28 27 28 28 29 29 29 28 28 27 28 28 27 27 28 28 27 26 25 24 24 24 24 24 23 22 21 21 23 24 23 22 21 21 20 20 19 21 22 22 22 21 21 21 20 19 19 19 19
35 34 33 34 36 40 44 50 57 63 67 65 63 62 63 63 58 52 48 44 38 34 33 34 33 33 34 35 35 35 34 33 33 33 32 31 29 27 23 21 22 24 25 23 21 22 26 30 32 33 32 30 28 27 27 27 28 28 29 28 28 28 27 27 27 28 27 29 30 30 29 27 26 24 23 22 23 23 24 22 21 21 22 22 21 20 19 20 19 19 19 19 20 20 21 21 20 20 19 18 18 17 17
37 35 33 34 37 41 44 47 53 60 66 65 64 64 66 64 59 52 46 42 37 34 34 35 35 34 34 34 34 34 34 33 33 32 32 30 28 26 23 22 23 24 24 21 22 25 30 33 34 33 31 28 26 26 26 27 27 28 28 28 27 27 27 27 26 27 27 29 31 31 31 28 25 24 23 22 23 24 26 23 22 21 21 20 20 19 19 19 19 18 18 19 19 19 19 20 19 19 18 18 17 17 17
38 37 35 36 38 42 44 46 50 55 62 64 64 65 66 63 57 50 44 40 38 37 36 37 37 37 35 34 34 34 33 33 31 30 29 28 26 24 23 23 24 24 23 22 25 29 33 35 35 33 31 28 26 26 25 26 26 27 27 27 27 27 26 26 26 26 26 29 31 31 31 27 25 23 23 22 24 26 27 24 23 22 21 21 21 21 21 21 20 20 19 19 19 19 19 19 19 19 19 18 18 18 18
39 38 36 38 40 43 45 45 47 51 56 59 61 63 63 60 55 48 43 40 40 41 41 40 39 39 37 36 35 34 33 32 31 29 27 25 24 24 23 23 23 23 22 24 29 33 36 36 35 33 30 28 27 27 26 25 25 25 26 26 26 26 26 25 25 25 26 28 30 30 30 28 27 25 23 22 26 29 27 24 24 23 22 23 24 24 24 24 24 23 22 21 21 21 21 21 21 21 21 20 21 21 21
39 39 38 39 41 44 46 46 47 48 51 54 55 57 58 56 52 47 44 43 44 45 46 43 41 39 38 37 35 34 33 31 30 27 25 24 23 23 23 23 23 23 23 28 32 36 38 37 36 33 30 29 29 29 28 26 25 25 25 26 26 26 26 25 25 25 26 27 28 28 28 30 30 28 24 23 26 29 29 26 24 24 24 25 26 26 26 26 26 26 26 25 25 24 24 24 24 24 24 24 24 24 25
41 39 37 38 39 42 47 48 47 47 48 49 50 51 52 51 49 47 45 45 46 48 49 46 43 40 38 36 35 33 32 31 29 27 25 24 24 23 22 22 21 22 25 30 34 37 38 38 36 33 30 30 30 30 29 28 27 26 25 25 25 25 25 25 25 25 27 27 27 27 28 30 31 30 25 23 25 27 29 26 24 24 23 25 26 26 26 27 27 27 27 27 27 28 27 27 27 26 26 27 27 27 27
45 40 37 37 38 40 45 47 47 46 45 46 46 46 47 46 46 46 45 44 46 48 49 47 44 41 38 36 34 32 31 30 29 28 26 25 24 23 21 21 21 24 27 32 35 37 39 38 36 33 30 30 30 30 29 29 28 27 26 25 25 24 25 24 25 26 28 27 27 28 29 29 30 30 28 24 25 27 28 25 23 23 22 24 25 26 27 28 28 28 28 27 27 27 28 28 28 28 28 28 28 28 27
51 45 39 38 38 39 42 45 47 47 45 44 43 43 43 43 43 44 44 43 44 45 47 47 45 42 39 36 33 32 30 30 29 29 28 25 23 22 21 21 23 25 30 34 36 38 39 38 36 33 29 29 30 30 30 29 28 28 27 25 24 24 24 24 24 26 28 28 28 28 29 28 27 28 30 26 26 27 28 25 23 22 22 24 25 27 28 29 31 31 30 28 26 25 26 27 28 29 29 28 28 27 26
57 51 44 42 40 39 40 43 46 48 48 45 42 40 39 40 40 41 42 41 41 41 43 45 45 43 40 37 35 33 31 30 30 29 29 25 23 21 21 22 24 28 32 35 37 38 39 37 35 32 29 29 29 30 30 29 29 28 27 25 23 22 22 23 24 26 28 30 29 28 28 27 25 25 29 29 28 27 29 28 25 22 22 24 26 28 30 31 32 32 30 28 25 24 24 25 27 29 30 29 28 27 26
61 54 48 47 46 44 42 43 46 49 50 46 42 39 37 37 38 38 39 38 38 38 39 42 43 42 41 39 37 36 34 32 31 31 30 27 24 21 21 23 26 30 34 37 38 39 39 38 35 32 29 28 29 29 29 29 29 28 26 24 22 22 22 22 24 27 30 31 29 27 27 26 24 23 25 30 29 28 29 29 27 25 25 26 27 28 29 32 32 31 29 27 25 24 24 25 27 29 31 30 29 28 27
63 55 49 49 50 50 48 46 46 48 49 46 43 40 38 37 36 36 37 37 36 36 37 39 39 39 39 39 39 38 37 36 35 33 32 30 26 23 22 24 28 32 36 37 39 39 39 38 35 32 29 29 29 29 29 29 28 27 26 23 21 21 22 23 25 28 32 31 30 29 28 27 24 22 21 26 29 29 27 28 29 28 29 31 31 30 29 32 33 32 28 26 25 25 26 28 29 31 32 31 31 29 28
67 58 50 49 50 52 53 50 49 47 47 45 43 41 39 36 35 35 37 38 37 36 37 36 36 35 36 38 39 40 40 39 37 35 34 32 29 26 23 25 29 33 37 38 39 39 38 38 35 33 30 30 30 29 29 28 27 26 25 22 20 21 23 25 26 28 32 31 31 31 31 29 26 23 20 22 26 29 28 28 29 30 32 33 33 32 31 32 33 32 29 27 27 28 29 30 31 32 33 33 32 31 29
69 61 52 49 49 50 53 53 51 48 46 44 42 40 39 36 34 34 37 38 38 37 35 34 33 33 34 36 37 38 40 39 37 36 35 33 31 28 24 26 29 34 37 38 39 38 38 38 36 34 31 32 31 30 29 27 27 26 24 21 20 20 24 27 28 28 29 30 31 33 33 31 28 25 22 20 21 25 30 29 29 30 32 32 33 33 33 33 33 33 31 29 29 30 31 31 32 33 34 35 34 33 30
67 60 54 50 49 49 50 51 51 49 46 43 40 38 37 35 33 34 36 36 36 35 33 33 33 34 35 35 35 37 38 37 36 35 35 34 32 30 26 27 30 34 37 38 38 38 38 37 36 34 32 33 33 32 30 28 26 25 24 21 20 20 23 28 30 29 28 28 31 33 33 33 31 28 24 21 20 22 27 29 30 30 31 32 33 33 33 33 34 34 32 32 32 32 33 33 33 34 36 37 38 37 34
63 58 53 51 49 48 47 48 48 48 46 43 40 37 36 34 33 34 35 35 34 33 31 33 34 35 35 34 35 35 36 35 34 33 34 34 33 31 29 28 30 34 38 38 38 38 37 37 35 33 32 34 35 34 32 29 27 26 24 22 20 20 21 27 29 29 29 28 30 33 33 33 32 30 26 23 21 21 24 28 30 31 31 32 33 33 34 34 35 35 34 34 34 35 35 36 36 37 39 42 43 42 38
61 57 53 51 49 48 47 46 46 47 46 44 41 39 36 34 35 36 36 35 33 31 29 32 34 36 36 35 35 35 35 34 33 32 33 33 33 32 31 30 32 35 38 38 38 38 37 36 34 33 32 34 35 36 34 32 29 28 26 24 22 21 22 25 27 28 31 29 31 33 34 34 33 31 29 26 22 21 24 26 29 31 31 32 33 33 34 35 36 37 37 37 37 37 39 40 41 42 45 48 48 46 42
64 59 54 51 50 49 48 48 47 47 46 45 43 41 39 36 37 39 38 36 33 30 28 31 35 36 35 35 36 36 35 33 32 32 32 33 33 33 32 33 34 36 37 38 39 38 37 36 35 34 33 34 36 36 36 34 31 30 28 26 24 23 24 26 27 29 30 30 30 31 33 33 33 32 31 28 24 23 24 27 29 32 33 34 34 34 34 37 38 39 39 40 40 41 43 44 46 48 51 52 51 48 44
68 62 55 52 51 51 52 51 50 48 48 47 46 44 42 39 39 40 40 38 33 30 30 32 35 36 35 35 36 36 36 34 33 32 32 33 33 33 33 34 36 37 37 39 39 38 37 37 36 35 34 34 35 36 37 35 33 32 30 28 26 25 26 27 28 29 30 31 30 30 30 31 32 31 31 30 27 25 25 29 31 34 35 36 37 36 35 39 41 42 42 42 43 44 47 48 50 52 54 54 52 48 45
71 64 57 54 53 54 55 55 54 53 52 50 49 47 44 42 41 40 40 37 34 33 33 35 35 35 35 35 36 36 37 36 34 33 33 33 33 33 33 34 36 37 38 39 39 39 38 38 37 36 35 35 35 36 37 36 35 33 32 31 29 27 27 28 28 28 29 30 30 29 28 28 28 29 29 28 27 27 28 31 34 36 37 38 39 39 38 41 43 45 45 45 45 47 50 52 54 55 56 56 52 48 45
73 65 59 57 56 56 59 60 60 59 58 56 53 50 47 45 43 41 40 39 39 39 39 38 37 36 36 36 36 37 38 37 36 35 34 34 34 33 32 34 36 38 38 39 40 40 40 39 39 37 36 35 35 36 37 37 36 34 33 32 31 30 29 29 28 27 27 27 27 26 26 25 25 26 26 27 27 28 29 33 36 38 39 39 41 42 42 45 47 48 49 49 50 51 53 55 57 58 58 56 52 48 44
75 68 63 61 60 59 61 65 66 65 64 61 56 52 48 46 44 43 44 45 45 45 43 41 40 40 38 38 38 38 39 39 38 36 35 35 34 33 33 34 36 38 39 39 40 41 41 40 40 39 37 36 36 36 37 37 37 36 34 33 33 32 31 30 29 27 26 24 24 23 23 22 23 24 24 26 27 28 30 35 38 40 40 41 42 45 47 48 50 51 52 53 54 55 56 58 59 59 59 54 50 47 44
79 74 68 66 64 63 64 67 69 68 67 63 58 53 49 46 45 46 49 49 48 47 47 46 46 46 45 43 41 40 40 40 39 38 37 36 35 34 33 34 36 38 40 40 40 41 41 41 40 39 38 37 37 37 37 38 38 37 36 34 33 33 32 31 29 28 27 25 23 22 22 22 22 23 24 26 28 29 30 36 39 41 42 43 44 47 50 51 53 54 55 56 57 59 59 60 60 60 58 53 49 46 43
83 79 75 72 69 68 68 69 70 69 67 63 57 53 50 47 47 50 52 51 50 49 49 51 52 53 53 50 46 43 42 43 42 40 39 38 37 36 35 35 37 39 40 41 41 41 42 42 41 40 39 39 38 37 37 38 38 39 38 35 34 33 32 31 30 29 28 26 24 23 23 24 24 25 25 27 30 31 31 36 40 42 43 44 46 49 51 53 55 56 57 59 60 61 62 62 62 60 57 53 49 46 43
85 82 80 77 74 73 73 72 71 70 66 62 57 54 52 50 51 53 54 54 52 51 51 52 54 56 57 54 49 46 46 46 45 43 41 40 39 38 36 36 37 39 41 42 42 43 43 43 42 41 40 40 39 38 38 38 39 40 39 37 35 33 32 31 30 29 29 27 25 25 26 28 28 28 28 29 31 32 32 36 41 44 45 46 48 50 53 55 56 57 59 61 62 63 63 63 62 60 56 52 49 46 42
86 84 82 81 80 79 78 75 73 70 66 61 58 55 54 54 54 55 56 56 55 53 52 51 52 54 55 52 50 48 49 49 47 46 44 43 41 40 38 38 38 40 41 43 43 44 44 43 43 42 41 40 40 39 39 39 39 39 40 39 36 34 33 32 32 31 30 28 27 27 30 32 32 32 31 31 31 32 33 37 42 45 47 48 50 52 53 55 56 57 59 61 63 64 64 63 61 59 55 52 50 47 42
84 83 83 85 86 85 82 78 74 70 66 62 59 56 54 56 56 56 57 58 58 56 54 52 51 51 51 50 49 50 52 51 50 48 47 46 44 43 41 40 40 41 42 43 44 44 44 44 43 42 40 40 40 40 40 40 39 39 40 40 38 36 35 34 33 32 31 29 28 28 32 35 37 37 36 35 34 33 32 38 43 46 48 50 52 54 55 56 57 58 59 61 63 64 63 62 60 57 53 52 51 49 45
81 83 85 88 89 88 85 79 74 71 69 65 62 58 56 58 57 57 59 60 60 60 58 55 53 52 51 50 51 52 54 52 51 50 49 48 46 45 43 42 42 42 43 43 44 44 44 44 43 42 40 39 39 40 40 40 39 39 39 40 39 38 37 36 35 34 33 30 29 30 32 37 40 41 42 41 39 36 34 37 42 47 50 52 54 56 57 58 59 60 60 62 63 63 63 61 58 55 52 52 52 51 49
83 85 85 86 88 88 86 79 76 74 74 71 68 65 63 63 61 60 62 62 63 63 61 59 57 57 56 56 57 58 56 54 52 51 50 49 48 46 45 44 43 43 43 44 44 44 44 44 43 42 41 39 39 39 39 40 39 39 39 39 40 40 39 38 37 36 34 32 31 30 32 37 40 43 44 44 43 41 38 37 41 47 51 53 55 57 58 60 61 63 63 64 64 63 62 59 56 53 51 52 52 52 51
86 86 86 87 88 88 84 80 80 81 82 79 77 75 74 70 66 63 65 66 67 68 68 67 67 67 68 69 68 66 60 55 53 52 51 50 48 47 46 45 44 43 44 44 44 44 43 43 43 42 42 40 39 38 38 38 38 38 38 38 39 40 41 40 39 38 36 34 33 32 32 36 40 44 46 46 45 44 42 42 42 46 51 54 56 58 60 62 64 65 66 66 65 63 61 58 55 53 51 51 51 51 50
88 89 89 89 89 87 83 82 84 87 88 86 85 83 82 77 71 68 71 74 76 77 79 79 79 80 79 79 77 73 65 57 54 53 53 50 49 47 46 45 45 44 44 44 44 44 43 43 43 43 42 41 41 39 38 38 37 37 37 38 38 39 41 41 41 39 38 36 34 33 33 36 39 43 46 47 46 45 44 46 45 46 49 53 56 59 61 63 65 66 67 66 65 64 62 60 57 54 51 50 50 49 48
87 89 90 90 88 86 84 84 87 89 90 88 88 87 86 83 80 79 82 85 85 85 85 85 85 85 84 83 81 77 68 60 56 55 54 51 49 47 47 47 46 46 45 46 45 45 44 44 43 43 43 42 41 40 39 38 38 37 38 37 37 38 40 41 41 40 38 37 36 36 36 37 40 43 46 47 47 46 45 47 47 47 48 52 55 59 62 64 66 66 66 65 65 64 62 60 57 54 51 49 48 48 47
86 88 90 89 87 85 85 85 87 89 91 89 89 89 88 86 85 86 87 89 89 88 87 87 87 87 86 86 83 78 69 63 60 59 57 53 50 49 49 49 49 48 48 47 47 47 46 45 44 44 43 43 42 42 41 40 39 39 39 38 37 38 39 41 41 41 39 38 38 39 40 40 42 44 47 48 49 49 49 48 47 48 49 51 54 57 60 63 64 64 63 63 62 62 60 58 55 53 50 48 46 46 45
86 87 90 87 85 85 87 87 88 89 91 91 90 90 89 87 85 84 84 86 88 89 88 88 88 87 86 84 80 75 70 68 66 64 59 55 52 52 52 52 52 52 51 51 50 49 48 47 46 45 44 44 43 43 43 43 42 41 40 39 39 39 39 41 42 42 41 40 41 42 44 44 44 45 48 49 51 52 52 51 50 50 51 53 55 56 58 60 61 61 59 59 59 59 57 55 53 51 49 47 45 44 44
87 86 88 86 86 86 88 89 89 90 92 92 91 90 89 87 84 80 78 80 82 84 85 84 83 81 79 76 73 72 73 75 73 68 62 57 54 54 55 55 56 56 56 55 54 53 52 50 49 47 46 46 45 45 46 46 45 44 43 42 41 42 42 44 45 45 44 43 43 45 47 47 46 45 47 49 51 52 53 53 53 54 55 56 57 57 58 59 59 58 56 54 54 54 54 52 51 49 48 47 46 45 45
90 89 88 88 88 89 90 91 91 92 92 92 92 92 90 89 86 84 80 80 80 80 80 79 77 75 73 71 71 73 76 78 75 69 62 57 54 54 56 57 58 58 59 59 59 58 57 55 53 51 50 49 48 48 48 49 49 48 47 46 45 45 46 48 50 50 48 46 45 47 49 48 47 45 45 47 49 51 52 53 54 55 58 59 59 59 59 59 57 56 53 50 49 49 50 50 50 49 48 48 47 47 47
92 92 90 91 92 93 93 93 93 93 93 92 91 91 90 91 91 90 88 87 85 83 81 78 76 75 74 74 74 75 76 75 71 66 60 57 54 53 53 55 58 60 62 63 62 62 60 59 57 55 54 53 52 52 52 52 52 52 51 50 49 49 49 51 53 53 51 48 47 47 49 49 48 46 44 45 46 49 50 51 52 55 58 60 61 60 59 58 56 53 50 47 45 45 47 48 48 48 48 48 48 49 49
93 93 93 92 92 93 94 93 94 94 92 92 91 90 90 90 91 92 92 92 92 90 87 83 80 79 80 79 78 77 74 71 68 65 61 60 58 56 54 54 56 59 62 67 68 67 62 61 60 58 58 57 57 56 56 56 56 55 55 53 52 51 51 52 54 54 53 50 48 47 48 49 48 47 45 45 46 47 49 49 51 53 56 59 60 59 58 56 53 51 47 45 43 43 44 46 47 47 47 49 51 51 51
93 93 93 93 92 92 92 92 93 93 93 92 91 89 87 87 88 90 92 93 93 93 92 89 86 84 84 84 82 79 74 72 71 71 69 67 66 65 63 59 57 58 62 68 73 73 67 64 63 62 60 60 60 60 59 59 58 57 56 55 53 52 51 52 54 55 54 52 50 48 48 49 48 48 47 47 47 47 48 49 51 53 55 56 57 56 54 52 50 47 44 42 42 43 45 45 45 45 47 49 52 54 54
93 93 93 93 93 93 92 92 92 91 91 92 92 90 88 87 88 90 92 92 92 92 92 91 89 87 87 86 85 83 80 79 78 79 78 75 73 73 73 72 69 67 67 68 69 70 69 69 69 68 65 64 64 64 62 61 59 58 57 56 55 55 54 54 55 56 56 54 53 51 50 50 49 49 48 48 48 47 47 49 52 53 53 53 52 52 51 49 46 43 41 40 40 42 44 45 45 45 46 50 54 57 58
90 92 92 93 93 93 93 93 92 92 91 92 92 92 91 91 92 92 93 92 91 90 90 90 89 88 87 86 85 85 84 84 83 82 81 79 78 77 78 79 78 76 74 71 67 66 68 73 75 74 70 68 67 67 65 63 62 60 60 61 61 62 61 59 60 60 59 58 57 55 54 52 51 50 49 48 47 48 49 53 55 55 53 51 49 48 48 47 45 42 40 40 40 42 43 44 45 46 49 53 57 61 62
86 89 93 94 94 94 94 93 92 91 91 91 92 92 91 92 93 93 94 92 91 90 89 91 90 89 89 86 85 84 84 84 83 82 81 80 80 80 80 81 80 78 76 73 71 71 73 75 77 77 74 71 70 69 69 67 67 67 68 70 71 70 68 65 65 65 64 63 62 60 57 56 54 53 51 49 50 52 56 59 59 56 52 50 48 47 47 47 45 43 41 41 42 43 44 45 47 49 53 58 62 65 66
84 86 90 93 94 94 94 91 89 87 87 88 89 91 92 92 93 93 94 93 93 93 93 93 93 92 92 90 88 86 84 83 81 80 79 79 79 79 81 81 81 80 78 76 76 77 78 78 78 78 77 77 76 76 75 75 75 75 76 76 76 75 73 70 69 69 69 68 66 64 62 61 59 58 56 55 56 59 62 61 58 54 50 48 48 49 51 49 46 44 44 44 44 45 46 48 50 53 58 62 66 69 70
84 84 86 88 91 92 94 93 92 89 87 86 86 88 90 92 92 92 92 93 94 94 94 94 94 94 94 93 92 90 89 86 83 80 79 79 78 78 79 82 83 82 81 80 79 79 80 80 80 80 80 82 83 83 82 81 81 80 79 79 79 78 75 72 72 72 73 72 71 69 68 67 67 67 66 65 65 63 60 57 53 50 47 48 50 53 55 52 48 46 46 46 47 48 49 52 55 59 64 67 70 72 73
84 84 84 85 87 89 91 92 92 92 92 90 89 88 87 89 92 93 93 93 93 93 94 94 94 94 94 94 93 93 93 91 89 86 84 84 83 83 83 85 86 85 83 81 80 80 80 80 80 81 82 83 84 85 85 83 82 81 80 80 79 78 76 74 73 73 73 74 74 74 74 75 76 76 76 74 70 63 56 52 50 49 48 50 53 55 56 53 50 48 47 48 49 50 52 56 61 66 70 72 73 74 74
81 83 84 84 85 86 89 90 90 91 92 92 92 91 89 88 90 93 94 94 93 93 93 94 94 94 94 94 94 94 94 93 92 91 90 89 89 89 89 89 88 87 85 84 83 82 82 82 81 81 81 81 83 84 86 85 84 82 81 81 80 79 78 75 74 74 74 75 77 79 81 82 83 83 82 78 72 64 56 53 51 51 52 54 55 55 55 54 52 50 49 50 51 53 56 62 67 72 75 76 76 75 75